This is the latest recevied weather packets stored in our database for station/object K8RLH. If no packets are shown the sender has not sent any weather packets the latest 10 day(s).
| Time | Temp. | Humidity | Pressure | Rain* | Wind** | Luminosity | Snow |
|---|---|---|---|---|---|---|---|
| 1778068538 | 17.78° C | 76% | 1016.7 hPa | 0 mm | - | 33 W/m² | - |
| 1778068236 | 17.78° C | 76% | 1016.7 hPa | 0 mm | - | 29 W/m² | - |
| 1778067933 | 17.78° C | 76% | 1016.8 hPa | 0 mm | - | 14 W/m² | - |
| 1778067631 | 18.33° C | 76% | 1016.4 hPa | 0 mm | - | 14 W/m² | - |
| 1778067329 | 18.33° C | 75% | 1016.5 hPa | 0 mm | - | 15 W/m² | - |
| 1778067026 | 18.33° C | 75% | 1016.5 hPa | 0 mm | - | 11 W/m² | - |
| 1778066722 | 18.33° C | 74% | 1016.6 hPa | 0 mm | - | 7 W/m² | - |
| 1778066420 | 18.33° C | 74% | 1016.6 hPa | 0 mm | - | 9 W/m² | - |
| 1778066118 | 18.33° C | 74% | 1016.3 hPa | 0 mm | - | 11 W/m² | - |
| 1778065815 | 18.33° C | 74% | 1016.1 hPa | 0 mm | - | 6 W/m² | - |
| 1778065512 | 18.33° C | 74% | 1016.4 hPa | 0 mm | - | 4 W/m² | - |
| 1778065209 | 18.33° C | 74% | 1016.3 hPa | 0 mm | - | 3 W/m² | - |
| 1778064905 | 18.33° C | 74% | 1016 hPa | 0 mm | - | 2 W/m² | - |
| 1778064603 | 18.33° C | 74% | 1016 hPa | 0 mm | - | 2 W/m² | - |
| 1778064301 | 18.33° C | 74% | 1015.9 hPa | 0 mm | - | 1 W/m² | - |
| 1778063999 | 18.33° C | 74% | 1015.6 hPa | 0 mm | - | 0 W/m² | - |
| 1778063695 | 18.33° C | 74% | 1015.5 hPa | 0 mm | - | 0 W/m² | - |
| 1778063392 | 18.33° C | 73% | 1015.5 hPa | 0 mm | - | 0 W/m² | - |
| 1778063090 | 18.33° C | 73% | 1015.4 hPa | 0 mm | - | 0 W/m² | - |
| 1778062787 | 18.33° C | 73% | 1015.4 hPa | 0 mm | - | 0 W/m² | - |
| 1778062484 | 18.33° C | 73% | 1015.4 hPa | 0 mm | - | 0 W/m² | - |
| 1778062181 | 18.33° C | 73% | 1015.3 hPa | 0 mm | - | 0 W/m² | - |
| 1778061879 | 18.33° C | 73% | 1015 hPa | 0 mm | - | 0 W/m² | - |
| 1778061577 | 18.33° C | 73% | 1015.1 hPa | 0 mm | - | 0 W/m² | - |
| 1778061275 | 18.33° C | 73% | 1015.2 hPa | 0 mm | - | 0 W/m² | - |
* Rain latest hour (hover to see other rain measurements)
** Current wind speed in m/s (hover to see current wind gust speed)